Location: Marcé
(47.5801°N, 0.3280°W)
Time: 15:30:46
(UTC+01:00)

Vanguard 1 - Pass Details

Date: 04 December 2021
Orbit: 652 x 3830 km, 34.2° (Epoch: 19 January)

Event Time Altitude Azimuth Distance (km) Brightness Sun altitude
Rises 21:11:22 0° 173° (S) 6,625 14.2 -39.6°
Enters shadow 21:16:13 - 161° (SSE) 6,304 13.9 -40.4°
Reaches altitude 10° 21:18:54 10° 153° (SSE) 6,202 - -40.9°
Maximum altitude 21:28:12 15° 125° (SE) 6,262 - -42.4°
Drops below altitude 10° 21:38:21 10° 99° (E) 6,932 - -44.1°
Sets 21:47:38 0° 81° (E) 7,887 - -45.5°
